Preview of NWS' New Version of Forecast
This preview is not operational and should not be used for support decisions.

Regional Weather Roundup (RWR)

Issued by National Weather Service (NWS)

                            
000
ASUS43 KBIS 220702
RWRND 

NORTH DAKOTA REGIONAL WEATHER ROUNDUP
NATIONAL WEATHER SERVICE BISMARCK ND
100 AM CST FRI FEB 22 2019

NOTE: "FAIR" INDICATES FEW OR NO CLOUDS BELOW 12,000 FEET WITH NO
SIGNIFICANT WEATHER AND/OR OBSTRUCTIONS TO VISIBILITY.


NDZ001>003-009>011-017-220800-
NORTHWEST NORTH DAKOTA
  
CITY           SKY/WX    TMP DP  RH WIND       PRES   REMARKS
WILLISTON      CLEAR    -14 -18  82 CALM      30.22F                  
MINOT          CLOUDY    -1  -7  75 SW9       30.21S WCI -16          
$$
 
NDZ018>021-031>035-040>046-220800-
SOUTHWEST NORTH DAKOTA
  
CITY           SKY/WX    TMP DP  RH WIND       PRES   REMARKS
BISMARCK       PTCLDY    -7 -11  83 CALM      30.26F                  
DICKINSON      PTCLDY    -8 -14  74 W3        30.15F                  
GARRISON         N/A     -8 -12  83 W5        30.21F WCI -19          
HETTINGER ARPT CLOUDY     0  -5  79 CALM      30.18F                  
$$
 
NDZ004>008-012>016-024-026-027-054-220800-
NORTHEAST NORTH DAKOTA
  
CITY           SKY/WX    TMP DP  RH WIND       PRES   REMARKS
GRAND FORKS    CLOUDY     8   4  83 CALM      30.29S                  
GRND FRKS AFB  FLURRIES   1  -4  82 CALM      30.28S                  
DEVILS LAKE    FLURRIES  -7 -10  87 SW9       30.25S WCI -24          
$$
 
NDZ022-023-025-028>030-036>039-047>053-220800-
SOUTHEAST NORTH DAKOTA
  
CITY           SKY/WX    TMP DP  RH WIND       PRES   REMARKS
FARGO          MOCLDY    10   6  84 SW9       30.31R FOG     WCI  -3  
JAMESTOWN      CLOUDY     0  -2  91 W6        30.26S WCI -12          
$$